Regional Weather Roundup
Issued by NWS Portland, ME

Home | Current Version | Previous Version | Text Only | Print | Product List | Glossary On
Versions: 1 2 3 4 5 6 7 8 9 10 11 12 13 14 15 16 17 18 19 20 21 22 23 24 25 26 27 28 29 30 31 32 33 34 35 36 37 38 39 40 41 42 43 44 45 46 47 48 49 50
000
ASUS41 KGYX 260810
RWRGYX
WEATHER ROUNDUP FOR MAINE AND NEW HAMPSHIRE
NATIONAL WEATHER SERVICE GRAY ME
400 AM EDT SUN MAR 26 2017

MEZ002-005-006-010-012-015-018-020-021-024-026-027-029-260900-
MAINE

CITY           SKY/WX    TMP DP  RH WIND       PRES   REMARKS
PORTLAND       PTCLDY    27  11  51 CALM      30.49R
SANFORD        CLOUDY    14  12  92 CALM      30.48R
BAR HARBOR     CLEAR     25   6  44 NE8       30.49R
WISCASSET      CLEAR     25  15  66 CALM      30.50R
ROCKLAND       CLEAR     30  10  43 NE8       30.47R
FRYEBURG       CLOUDY    13   9  84 CALM      30.48R
LEWISTONAUBURN CLEAR     21  11  65 CALM      30.49R
AUGUSTA        CLEAR     26   2  35 N7        30.47R
WATERVILLE     CLEAR     25   6  44 N10       30.44S WCI  15
BANGOR         CLEAR     23   2  40 N10       30.49R WCI  12
GREENVILLE       N/A     14  -3  47 CALM      30.41R
MILLINOCKET    CLEAR     17   0  47 CALM      30.50R
HOULTON        PTCLDY    17  -1  45 N10       30.44R WCI   5
PRESQUE ISLE   PTCLDY    14  -2  49 NW6       30.47R
FRENCHVILLE    PTCLDY    12  -6  44 N13       30.41R WCI  -3
CARIBOU        PTCLDY    12  -3  51 NW9       30.44R
$$

NHZ002-005-008-009-011-012-014-260900-
NEW HAMPSHIRE

CITY           SKY/WX    TMP DP  RH WIND       PRES   REMARKS
PORTSMOUTH     PTCLDY    28  19  67 N8        30.45S
ROCHESTER      CLOUDY    25  19  78 N5        30.45S
NASHUA         PTCLDY    24  23  96 CALM      30.47S
MANCHESTER     CLOUDY    25  22  88 CALM      30.45S
CONCORD        CLOUDY    22  18  85 CALM      30.46R
LACONIA        CLOUDY    17  15  92 CALM      30.46S
PLYMOUTH       FAIR      17  15  93 CALM      30.47R
BERLIN         CLOUDY     3  -2  79 CALM      30.44R
WHITEFIELD     CLOUDY     5   1  83 CALM      30.45R
JAFFREY        CLOUDY    21  17  84 CALM      30.42S
KEENE          FOG       23  22  96 CALM      30.46S VSB 1/4
LEBANON        CLOUDY    19  17  92 S3        30.47R
MT WASHINGTON  PTCLDY    19 -20  16 NW21        N/A  WCI   3
$$

VTZ005-007-008-260900-
VERMONT

CITY           SKY/WX    TMP DP  RH WIND       PRES   REMARKS
ST JOHNSBURY     N/A     13  10  88 MISG      30.47S
MONTPELIER     FOG       14  14 100 CALM      30.49F VSB 3/4
BURLINGTON     CLOUDY    19  15  84 E3        30.49F
$$

MAZ007-012-024-CTZ003-RIZ002-NYZ038-NYZ072-260900-
SOUTHERN NEW ENGLAND AND NY

CITY           SKY/WX    TMP DP  RH WIND       PRES   REMARKS
BOSTON         CLOUDY    31  25  78 N9        30.47R
WORCESTER      CLOUDY    29  22  75 NE7       30.42R
NANTUCKET      CLEAR     32  30  92 N6        30.42S
PROVIDENCE     CLOUDY    32  27  81 N8        30.45S
HARTFORD       CLOUDY    30  28  92 N8        30.45S
ALBANY         CLOUDY    28  14  55 N7        30.46S
NEW YORK CITY  LGT RAIN  41  35  79 NE13      30.41F
$$

ANZ081-ANZ082-ANZ150-NHZ014-MEZ023>029-260900-
COASTAL MARINE OBSERVATIONS

STATION/POSITION TIME  TEMP    WIND        PRES    WAVE
                       AIR SEA DIR/SP/G            HT/PER
                 (UTC) (F)     (DEG/KT/KT) (MB)    (FT/S)
MOUNT DESERT ROC 0800   31                 1031.4R
MATINICUS ROCK   0700   34      20/ 14/ 16 1030.8R
ISLE OF SHOALS   0700   35      20/ 19/ 20 1031.1R
JEFFREYS LEDGE   0706      40                N/A     4/ 4
CASHES LEDGE BUO 0750   35 39              1031.5R   4/ 5
GEORGES BANK BUO 0750   40 40              1028.5R   7/ 9
$$

.............KEY..............
   WCI - WIND CHILL
   TC  - TEMPERATURE IN CELSIUS
   VSB - VISIBILITY IN MILES
   HX  - HEAT INDEX
   FAIR- INDICATES FEW OR NO CLOUDS BELOW 12,000 FT, WITH NO
         SIGNIFICANT WEATHER AND/OR OBSTRUCTIONS TO VISIBILITY.






USA.gov is the U.S. government's official web portal to all federal, state and local government web resources and services.